OK1ZDJ-13 Weather Reports


Display with metric or nautical units.
time (UTC)temp
F
wind
direction
speed
MPH
gust
MPH
rain 1hr
in
rain 24hr
in
rain mn
in
humidity
%
barometer
mb
20260507191821 55 0.0 0.0 0.00 0.00 0.00 73 1016.2
20260507184821 56 0.0 0.0 0.00 0.00 0.00 70 1015.6
20260507183821 57 0.0 0.0 0.00 0.00 0.00 69 1015.5
20260507182821 57 0.0 0.0 0.00 0.00 0.00 68 1015.3
20260507181821 58 0.0 0.0 0.00 0.00 0.00 67 1015.2
20260507180821 58 0.0 0.0 0.00 0.00 0.00 66 1015.1
20260507175821 58 0.0 0.0 0.00 0.00 0.00 65 1015.1
20260507174821 59 0.0 0.0 0.00 0.00 0.00 64 1014.9
20260507172822 59 0.0 0.0 0.00 0.00 0.00 63 1014.8
20260507171821 59 0.0 0.0 0.00 0.00 0.00 62 1014.7
20260507170821 60 0.0 0.0 0.00 0.00 0.00 59 1014.6
20260507165821 61 0.0 0.0 0.00 0.00 0.00 56 1014.5
20260507164821 63 0.0 0.0 0.00 0.00 0.00 51 1014.2
20260507163821 64 0.0 0.0 0.00 0.00 0.00 48 1014.1
20260507162821 65 0.0 0.0 0.00 0.00 0.00 46 1013.9
20260507161821 65 0.0 0.0 0.00 0.00 0.00 47 1014.0
20260507160821 67 0.0 0.0 0.00 0.00 0.00 44 1013.9
20260507155821 71 0.0 0.0 0.00 0.00 0.00 38 1013.8
20260507153826 70 0.0 0.0 0.00 0.00 0.00 40 1013.9
20260507152819 72 0.0 0.0 0.00 0.00 0.00 36 1013.9
20260507151819 73 0.0 0.0 0.00 0.00 0.00 36 1013.9
20260507150819 71 0.0 0.0 0.00 0.00 0.00 37 1013.8
20260507145819 73 0.0 0.0 0.00 0.00 0.00 34 1013.7
20260507144819 71 0.0 0.0 0.00 0.00 0.00 38 1013.8
20260507143819 68 0.0 0.0 0.00 0.00 0.00 42 1013.9
20260507142819 68 0.0 0.0 0.00 0.00 0.00 44 1013.9
20260507141819 67 0.0 0.0 0.00 0.00 0.00 46 1013.8
20260507140819 65 0.0 0.0 0.00 0.00 0.00 48 1014.0
20260507135820 65 0.0 0.0 0.00 0.00 0.00 48 1014.0
20260507134819 65 0.0 0.0 0.00 0.00 0.00 48 1014.2
20260507133820 65 0.0 0.0 0.00 0.00 0.00 48 1014.1
20260507132819 66 0.0 0.0 0.00 0.00 0.00 50 1014.1
20260507131819 65 0.0 0.0 0.00 0.00 0.00 50 1014.1
20260507130819 65 0.0 0.0 0.00 0.00 0.00 51 1014.2
20260507125819 65 0.0 0.0 0.00 0.00 0.00 50 1014.0
20260507124819 65 0.0 0.0 0.00 0.00 0.00 50 1014.0
20260507123819 65 0.0 0.0 0.00 0.00 0.00 49 1013.9
20260507122819 66 0.0 0.0 0.00 0.00 0.00 47 1013.8
20260507121819 67 0.0 0.0 0.00 0.00 0.00 47 1013.7
20260507120819 65 0.0 0.0 0.00 0.00 0.00 49 1013.7
20260507115819 65 0.0 0.0 0.00 0.00 0.00 52 1013.7
20260507114819 65 0.0 0.0 0.00 0.00 0.00 51 1013.6
20260507112819 65 0.0 0.0 0.00 0.00 0.00 56 1013.6
20260507111819 64 0.0 0.0 0.00 0.00 0.00 57 1013.6
20260507105819 64 0.0 0.0 0.00 0.00 0.00 58 1013.6
20260507104819 64 0.0 0.0 0.00 0.00 0.00 59 1013.5
20260507103819 63 0.0 0.0 0.00 0.00 0.00 60 1013.5
20260507102819 64 0.0 0.0 0.00 0.00 0.00 58 1013.4
20260507100819 63 0.0 0.0 0.00 0.00 0.00 56 1013.1
20260507095819 62 0.0 0.0 0.00 0.00 0.00 60 1013.2
20260507094819 62 0.0 0.0 0.00 0.00 0.00 61 1013.2
20260507093824 62 0.0 0.0 0.00 0.00 0.00 62 1013.1
20260507092818 62 0.0 0.0 0.00 0.00 0.00 61 1013.0
20260507091818 62 0.0 0.0 0.00 0.00 0.00 63 1013.0
20260507090818 62 0.0 0.0 0.00 0.00 0.00 62 1013.0
20260507085818 62 0.0 0.0 0.00 0.00 0.00 63 1012.9
20260507084818 61 0.0 0.0 0.00 0.00 0.00 62 1012.8
20260507083818 60 0.0 0.0 0.00 0.00 0.00 67 1012.7
20260507082818 60 0.0 0.0 0.00 0.00 0.00 68 1012.7
20260507081818 60 0.0 0.0 0.00 0.00 0.00 70 1012.6
20260507080818 60 0.0 0.0 0.00 0.00 0.00 71 1012.6
20260507075818 60 0.0 0.0 0.00 0.00 0.00 70 1012.5
20260507074818 59 0.0 0.0 0.00 0.00 0.00 74 1012.5
20260507073818 59 0.0 0.0 0.00 0.00 0.00 74 1012.5
20260507072818 59 0.0 0.0 0.00 0.00 0.00 75 1012.5
20260507071818 59 0.0 0.0 0.00 0.00 0.00 77 1012.4
20260507070818 59 0.0 0.0 0.00 0.00 0.00 76 1012.3
20260507064818 59 0.0 0.0 0.00 0.00 0.00 76 1012.2
20260507063818 60 0.0 0.0 0.00 0.00 0.00 75 1012.2
20260507062818 62 0.0 0.0 0.00 0.00 0.00 70 1012.0
20260507061818 61 0.0 0.0 0.00 0.00 0.00 74 1011.8
20260507060818 59 0.0 0.0 0.00 0.00 0.00 81 1011.8
20260507055818 58 0.0 0.0 0.00 0.00 0.00 84 1011.7
20260507054818 57 0.0 0.0 0.00 0.00 0.00 86 1011.6
20260507053818 56 0.0 0.0 0.00 0.00 0.00 87 1011.4
20260507052818 56 0.0 0.0 0.00 0.00 0.00 90 1011.3
20260507051818 55 0.0 0.0 0.00 0.00 0.00 95 1011.3
20260507050818 54 0.0 0.0 0.00 0.00 0.00 95 1011.1
20260507045818 54 0.0 0.0 0.00 0.00 0.00 95 1011.1
20260507044818 54 0.0 0.0 0.00 0.00 0.00 95 1010.9
20260507043818 54 0.0 0.0 0.00 0.00 0.00 96 1010.8
20260507042818 54 0.0 0.0 0.00 0.00 0.00 97 1010.7
20260507041818 54 0.0 0.0 0.00 0.00 0.00 98 1010.6
20260507040818 54 0.0 0.0 0.00 0.00 0.00 99 1010.3
20260507035818 54 0.0 0.0 0.00 0.00 0.00 99 1010.3
20260507034818 54 0.0 0.0 0.00 0.00 0.00 99 1010.1
20260507033822 54 0.0 0.0 0.00 0.00 0.00 10 1010.0
20260507032817 54 0.0 0.0 0.00 0.00 0.00 10 1009.9
20260507031816 54 0.0 0.0 0.00 0.00 0.00 10 1009.9
20260507030817 54 0.0 0.0 0.00 0.00 0.00 10 1009.9
20260507025816 54 0.0 0.0 0.00 0.00 0.00 10 1009.9
20260507024816 54 0.0 0.0 0.00 0.00 0.00 10 1009.8
20260507023816 54 0.0 0.0 0.00 0.00 0.00 99 1009.8
20260507022816 54 0.0 0.0 0.00 0.00 0.00 98 1009.9
20260507021816 54 0.0 0.0 0.00 0.00 0.00 98 1009.8
20260507020816 53 0.0 0.0 0.00 0.00 0.00 97 1009.8
20260507015816 53 0.0 0.0 0.00 0.00 0.00 96 1009.8
20260507014816 53 0.0 0.0 0.00 0.00 0.00 95 1009.8
20260507013816 54 0.0 0.0 0.00 0.00 0.00 95 1009.7
20260507012816 54 0.0 0.0 0.00 0.00 0.00 96 1009.5
20260507011816 55 0.0 0.0 0.00 0.00 0.00 97 1009.6
20260507010816 55 0.0 0.0 0.00 0.00 0.00 97 1009.6
20260507005816 55 0.0 0.0 0.00 0.00 0.00 97 1009.5
20260507004816 55 0.0 0.0 0.00 0.00 0.00 97 1009.4
20260507003816 55 0.0 0.0 0.00 0.00 0.00 97 1009.2
20260507002816 55 0.0 0.0 0.00 0.00 0.00 97 1008.9
20260507001816 55 0.0 0.0 0.00 0.00 0.00 97 1008.7
20260507000816 55 0.0 0.0 0.00 0.00 0.00 96 1008.6
20260506234816 55 0.0 0.0 0.00 0.00 0.00 96 1008.3
20260506233816 55 0.0 0.0 0.00 0.00 0.00 95 1008.1
20260506232816 56 0.0 0.0 0.00 0.00 0.00 95 1008.1
20260506231816 56 0.0 0.0 0.00 0.00 0.00 95 1007.9
20260506230818 56 0.0 0.0 0.00 0.00 0.00 96 1007.9
20260506225816 56 0.0 0.0 0.00 0.00 0.00 96 1007.0
20260506224816 56 0.0 0.0 0.00 0.00 0.00 94 1007.8
20260506223816 56 0.0 0.0 0.00 0.00 0.00 94 1008.7
20260506222816 56 0.0 0.0 0.00 0.00 0.00 94 1008.8
20260506221816 56 0.0 0.0 0.00 0.00 0.00 93 1009.0
20260506220816 57 0.0 0.0 0.00 0.00 0.00 92 1008.9
20260506215816 57 0.0 0.0 0.00 0.00 0.00 92 1009.3
20260506214816 57 0.0 0.0 0.00 0.00 0.00 91 1008.3
20260506213821 57 0.0 0.0 0.00 0.00 0.00 92 1008.6
20260506212815 57 0.0 0.0 0.00 0.00 0.00 90 1008.0
20260506211815 57 0.0 0.0 0.00 0.00 0.00 94 1007.7
20260506204815 57 0.0 0.0 0.00 0.00 0.00 93 1007.3
20260506203815 56 0.0 0.0 0.00 0.00 0.00 93 1007.7
20260506202815 56 0.0 0.0 0.00 0.00 0.00 93 1007.6
20260506201815 56 0.0 0.0 0.00 0.00 0.00 92 1007.4
20260506195815 56 0.0 0.0 0.00 0.00 0.00 92 1006.7
20260506194815 56 0.0 0.0 0.00 0.00 0.00 92 1006.4
20260506193815 56 0.0 0.0 0.00 0.00 0.00 93 1006.4
20260506192815 56 0.0 0.0 0.00 0.00 0.00 93 1006.4